Regional Weather Roundup
Issued by NWS

Home | Current Version | Previous Version | Graphics & Text | Print | Product List | Glossary On
Versions: 1 2 3 4 5 6 7 8 9 10 11 12 13 14 15 16 17 18 19 20 21 22 23 24 25 26 27 28 29 30 31 32 33 34 35 36 37 38 39 40 41 42 43 44 45 46 47 48 49 50
831
ASUS45 KCYS 281110
RWRWY

WYOMING REGIONAL WEATHER ROUNDUP
NATIONAL WEATHER SERVICE CHEYENNE WY
500 AM MDT FRI APR 28 2017

NOTE:  "FAIR" INDICATES FEW OR NO CLOUDS BELOW 12,000 FEET
WITH NO SIGNIFICANT WEATHER AND/OR OBSTRUCTIONS TO VISIBILITY.

WYZ001-281200-
YELLOWSTONE NATIONAL PARK

CITY           SKY/WX    TMP DP  RH WIND       PRES   REMARKS
LK YELLOWSTONE   N/A     23  20  88 VRB3      29.79R
W YELLOWSTONE  NOT AVBL

$$
WYZ002>013-054>058-071-098>099-281200-
NORTHERN WYOMING

CITY           SKY/WX    TMP DP  RH WIND       PRES   REMARKS
JACKSON        CLOUDY    28  28 100 CALM      29.77S
CODY           FLURRIES  33  31  92 N21G26    29.77R WCI  21
GREYBULL       CLOUDY    40  31  70 N26       29.69R WCI  29
WORLAND        CLOUDY    38  34  85 N16G23    29.70R WCI  29
SHERIDAN       LGT SNOW  33  32  96 W12       29.81S FOG     WCI  24
BUFFALO        SNOW      32  29  88 NW15G28   29.77R VSB 1/2 WCI  22
GILLETTE       SNOW      32  32 100 NE10      29.74R WCI  24
HULETT         LGT SNOW  34  32  93 NE9G16    29.77R WCI  26
NEWCASTLE      CLOUDY    32  32 100 CALM      29.71R

$$
WYZ014>020-022>026-101>103-281200-
CENTRAL WYOMING

CITY           SKY/WX    TMP DP  RH WIND       PRES   REMARKS
BIG PINEY      CLOUDY    30  19  63 NW10      29.71F WCI  21
PINEDALE       CLOUDY    28  23  80 NW16G22   29.71S WCI  17
DUBOIS         CLOUDY    30  19  64 NW12      29.68S WCI  21
LANDER         LGT SNOW  32  31  96 NW6       29.69R FOG     WCI  26
RIVERTON       LGT SNOW  32  32 100 N5        29.70R VSB 3/4 WCI  27
CASPER         LGT SNOW  31  30  96 N14       29.67R FOG     WCI  21
DOUGLAS        CLOUDY    32  30  92 NE10      29.66R WCI  24

$$
WYZ021-027>030-104>119-281200-
SOUTHERN WYOMING

CITY           SKY/WX    TMP DP  RH WIND       PRES   REMARKS
EVANSTON       FAIR      21  16  81 SW9       29.79S WCI  11
ROCK SPRINGS   LGT SNOW  29  21  72 W20       29.73S WCI  16
DIXON            N/A     30  23  73 SW7       29.76S WCI  23
RAWLINS        LGT SNOW  29  24  82 W20       29.66S WCI  16
SARATOGA       CLOUDY    30  25  80 W12G18    29.68F WCI  21
LARAMIE        FAIR      24  18  77 W6        29.61S WCI  17
CHEYENNE       FAIR      31  23  72 VRB3      29.62R
TORRINGTON     LGT RAIN  37  36  96 E14       29.61R WCI  28
PINE BLUFFS    FAIR      32  30  93 W8        29.61F WCI  25

$$




USA.gov is the U.S. government's official web portal to all federal, state and local government web resources and services.